BEIDOU-3 G4

Last updated on Wed Jul 02 2025 00:02:48 GMT+0000 (Coordinated Universal Time)

1 56564U 23066A 25182.53794980 -.00000108 00000+0 00000+0 0 9994 2 56564 1.1893 293.0598 0006584 188.6405 151.8112 1.00271311 7878
UTC large
Height (km)
Speed (km/s)
/
Latitude / Longitude
Inclination (degrees)
Orbital Period (minutes)
Azimuth
Elevation
Range (km)
Doppler Factor

Next 0 passes for location: London (51.5072 / 0.1276)

Sorry there are no passes over London.